Location: Cuguron
(43.0994°N, 0.5363°E)
Time: 15:19:58
(UTC+00:00)

Cosmos 1354 Rocket - Pass Details

Date: 15 May 2026
Orbit: 761 x 778 km, 74.0° (Epoch: 10 June)

Event Time Altitude Azimuth Distance (km) Brightness Sun altitude
Rises 21:59:16 0° 341° (NNW) 3,242 8.7 -22.5°
Reaches altitude 10° 22:01:40 10° 343° (NNW) 2,310 7.6 -22.7°
Maximum altitude 22:06:54 75° 69° (ENE) 792 3.9 -23.1°
Enters shadow 22:07:47 60° 132° (SE) 872 3.9 -23.2°
